sat.trackr.live / text

‹ back to catalog

GUANGCHUAN 01

NORAD 62111 · 2024-221A

PAYLOAD ACTIVE UNKNOWN

§ Identity

Operator
Country
PRC
Launch date
2024-11-27
Launch site
JSC
Launch vehicle
Mass (kg)
RCS (m²)

External: N2YO · Heavens-Above · Gunter

§ Orbital elements

Epoch: 2026-05-24T19:31:46.010208Z

Period
95.08 min
Inclination
49.9440°
Eccentricity
0.0007605
Mean motion
15.14463360 rev/d
Perigee alt
517.4 km
Apogee alt
527.9 km
Semi-major
6,900.7 km
B*
1.6120e-4
RAAN
275.9286°
Arg perigee
207.1895°
Mean anomaly
152.8658°
Rev number
8,264

§ Raw data

GUANGCHUAN 011 62111U 24221A   26144.81372697  .00002704  00000+0  16120-3 0  99972 62111  49.9440 275.9286 0007605 207.1895 152.8658 15.14463360 82640

JSON: /api/v1/satellites/62111 · /tle

For live sub-satellite position, see the globe view (requires WebGL).

§ Visibility from observer

Set your observer location to see the next 7 days of passes ≥ 10°. The values pass through the URL so the page stays shareable.

No JS? Fill the form by hand. The geolocation button needs JavaScript.